Location: Dehesa de la Cepeda
(40.6574°N, 4.3013°W)
Time: 04:08:53
(UTC+00:00)

Transit 2A Rocket - Visible Passes

Search period start: 01 August 2021 00:00
Search period end: 11 August 2021 00:00
Orbit: 589 x 913 km, 66.7° (Epoch: 31 July)

Date Brightness Start Highest point End Pass type
(mag) Time Alt. Az. Time Alt. Az. Time Alt. Az.
01 Aug 7.4 00:58:09 10° WNW 00:59:10 13° WNW 00:59:10 13° WNW visible
01 Aug 5.8 22:31:33 10° NNW 22:36:54 46° NE 22:37:34 44° ENE visible
02 Aug 6.8 00:14:30 10° NW 00:17:27 24° WNW 00:17:27 24° WNW visible
02 Aug 6.5 21:49:14 10° N 21:54:04 29° NE 21:55:54 25° E visible
02 Aug 6.0 23:31:25 10° NW 23:35:46 43° W 23:35:46 43° W visible
03 Aug 7.0 21:07:08 10° N 21:11:06 19° NE 21:14:15 13° E visible
03 Aug 5.2 22:48:38 10° NNW 22:54:08 80° W 22:54:08 80° W visible
04 Aug 7.3 20:25:30 10° NNE 20:27:59 13° NE 20:30:33 10° ENE visible
04 Aug 5.3 22:06:02 10° NNW 22:11:37 63° ENE 22:12:33 55° E visible
04 Aug 7.1 23:49:39 10° WNW 23:52:26 19° W 23:52:26 19° W visible
05 Aug 6.0 21:23:37 10° NNW 21:28:51 39° NE 21:31:00 29° E visible
05 Aug 6.3 23:06:17 10° NW 23:10:53 34° W 23:10:53 34° W visible
06 Aug 6.6 20:41:21 10° N 20:45:58 25° NE 20:49:30 15° E visible
06 Aug 5.4 22:23:19 10° NW 22:28:54 59° WSW 22:29:23 57° SW visible
07 Aug 7.0 19:59:22 10° N 20:02:57 17° NE 20:06:40 10° E visible
07 Aug 5.2 21:40:36 10° NNW 21:46:17 85° ENE 21:47:56 50° SE visible
07 Aug 7.4 23:25:13 10° WNW 23:27:50 14° W 23:27:50 14° W visible
08 Aug 5.6 20:58:03 10° NNW 21:03:35 53° ENE 21:06:32 28° ESE visible
08 Aug 6.7 22:41:18 10° NW 22:45:55 25° WSW 22:46:26 25° WSW visible
09 Aug 6.2 20:15:42 10° NNW 20:20:46 34° NE 20:25:11 14° ESE visible
09 Aug 6.1 21:58:06 10° NW 22:03:28 42° WSW 22:05:05 35° SSW visible
10 Aug 5.4 21:15:14 10° NW 21:20:56 71° WSW 21:23:48 32° SSE visible
